Showing default

DUCHIFAT 1, 40021

Orbit data source: Space-Track

DUCHIFAT 1, 40021 is a payload satellite owned by Herzliya (IL) in SSO that was launched on Thu, 19 Jun 2014 UTC via a DNEPR launch vehicle from the Orenburg, Russia (OREN). Payload-class satellites include a variety of spacecraft equipped with specific instruments for various scientific and technological missions. These include communications satellites like Starlink; space stations such as the ISS; scientific satellites like the Hubble; Earth observation satellites from companies like Planet Labs, Umbra, and HawkEye 360; GPS; miniature CubeSats for education and research; and military/defense satellites.

Loading next visibility...
Identifier
40021, 2014-033M
Orbit
SSO
Country
Flag of ILIL / ISRA
Related business
Manufacturer
Herzliya
Mission
Operational Amateur Technology
Bus & Motor
CUBESAT 1U, Unknown motor
Mass
1 kg wet, 1 kg dry
Launch date (UTC)
2014-06-19 (12 years ago)
Launch vehicle
DNEPR
Launch site
Orenburg, Russia (OREN)
Object type
Payload
Rocket body
Debris
Shape & HBR
Box + 4 Ant, 0.3 m
Radar Cross Section
0.046 m², Small (<0.1 m²)

Expand to show TLE details & history
Last TLE update: 10 hours ago

TLE from 10 hours ago
0 DUCHIFAT 1
1 40021U 14033M   26124.09577514  .00074568  00000-0  10193-2 0  9997
2 40021  98.0515 177.3522 0005133 210.7680 149.3273 15.57185713648875
Epoch: 2026-05-04T02:17Z
TLE epoch observation values (Epoch: 2026-05-04T02:17:54.972Z)
Latitude
-0°
Longitude
-79.11674°
Altitude
401.919 km
Speed
7.668 km/s
True Right ascension
11h 49m 24s
True Declination
0° 00' 00"
Sunlit
Object was in full shadow at epoch
Visualization orbit readout
Latitude
Unknown
Longitude
Unknown
Altitude
Unknown
Speed
Unknown
Apparent Right ascension
Unknown
Apparent Declination
Unknown
Sunlit
N/A
Visualization observer readout
Local Sidereal Time
20:15:51
Azimuth
Unknown
Elevation
Unknown
Doppler factor
Unknown
Orbital elements
Apogee altitude
396.228 km
Perigee altitude
389.277 km
Semi-major axis
6,770.889 km
Eccentricity
0.00051
Inclination
98.0515°
RAAN
177.3522°
Arg. of periapsis
210.768°
True anomaly
149.35729°
Mean anomaly
149.3273°
Eccentric anomaly
149.3423°
Mean motion
3.8956 °/min
Orbital period
92.41 mins
BSTAR
0.0010193
Loading maneuver chart data...
Computing Atmospheric mass density...
Loading historical data...
Loading historical data...
Loading historical data...
Loading historical data...
Loading historical data...
Loading historical data...
Loading historical data...

Documentation

Showing up to 5 results
|